| time (UTC) | temp F | wind direction | speed knots | gust knots | rain 1hr in | rain 24hr in | rain mn in | humidity % | barometer mb |
| 20260902060500 | 86 | 191 | 2.6 | 2.6 | 0.00 | 0.00 | 0.00 | 40 | 1009.2 |
| 20260902060000 | 87 | 219 | 3.5 | 3.5 | 0.00 | 0.00 | 0.00 | 38 | 1009.3 |
| 20260902055500 | 86 | 251 | 1.7 | 1.7 | 0.00 | 0.00 | 0.00 | 39 | 1009.2 |
| 20260902055000 | 87 | 269 | 3.5 | 3.5 | 0.00 | 0.00 | 0.00 | 38 | 1009.1 |
| 20260902054500 | 85 | 44 | 0.0 | 0.0 | 0.00 | 0.00 | 0.00 | 40 | 1009.1 |
| 20260902054000 | 85 | 311 | 5.2 | 7.0 | 0.00 | 0.00 | 0.00 | 41 | 1009.1 |
| 20260902053500 | 84 | 289 | 5.2 | 5.2 | 0.00 | 0.00 | 0.00 | 41 | 1009.0 |
| 20260902053000 | 84 | 306 | 7.8 | 7.8 | 0.00 | 0.00 | 0.00 | 41 | 1009.0 |
| 20260902052500 | 84 | 313 | 5.2 | 6.1 | 0.00 | 0.00 | 0.00 | 41 | 1009.1 |
| 20260902052000 | 84 | 317 | 7.8 | 7.8 | 0.00 | 0.00 | 0.00 | 42 | 1009.0 |
| 20260902051500 | 84 | 313 | 7.0 | 7.8 | 0.00 | 0.00 | 0.00 | 40 | 1009.1 |
| 20260902051000 | 84 | 293 | 7.0 | 7.8 | 0.00 | 0.00 | 0.00 | 41 | 1009.1 |
| 20260902050500 | 83 | 319 | 6.1 | 7.0 | 0.00 | 0.00 | 0.00 | 42 | 1009.1 |
| 20260902050000 | 83 | 355 | 3.5 | 4.3 | 0.00 | 0.00 | 0.00 | 43 | 1009.0 |
| 20260902045500 | 83 | 321 | 6.1 | 9.6 | 0.00 | 0.00 | 0.00 | 43 | 1009.0 |
| 20260902045000 | 83 | 322 | 5.2 | 7.0 | 0.00 | 0.00 | 0.00 | 42 | 1009.0 |
| 20260902044500 | 83 | 324 | 4.3 | 5.2 | 0.00 | 0.00 | 0.00 | 42 | 1009.0 |
| 20260902044000 | 83 | 285 | 6.1 | 7.8 | 0.00 | 0.00 | 0.00 | 41 | 1008.9 |
| 20260902043500 | 83 | 335 | 5.2 | 5.2 | 0.00 | 0.00 | 0.00 | 41 | 1009.0 |
| 20260902043000 | 82 | 295 | 3.5 | 4.3 | 0.00 | 0.00 | 0.00 | 41 | 1008.9 |
| 20260902042500 | 82 | 305 | 6.1 | 7.0 | 0.00 | 0.00 | 0.00 | 41 | 1008.9 |
| 20260902042000 | 82 | 11 | 1.7 | 1.7 | 0.00 | 0.00 | 0.00 | 40 | 1008.9 |
| 20260902041500 | 82 | 256 | 0.9 | 0.9 | 0.00 | 0.00 | 0.00 | 39 | 1008.8 |
| 20260902041000 | 82 | 69 | 0.9 | 1.7 | 0.00 | 0.00 | 0.00 | 38 | 1008.8 |
| 20260902040500 | 81 | 129 | 0.0 | 1.7 | 0.00 | 0.00 | 0.00 | 39 | 1008.7 |
| 20260902040000 | 82 | 190 | 1.7 | 1.7 | 0.00 | 0.00 | 0.00 | 39 | 1008.7 |
| 20260902035500 | 82 | 337 | 0.9 | 2.6 | 0.00 | 0.00 | 0.00 | 39 | 1008.8 |
| 20260902035000 | 82 | 309 | 0.0 | 1.7 | 0.00 | 0.00 | 0.00 | 38 | 1008.7 |
| 20260902034500 | 82 | 313 | 1.7 | 1.7 | 0.00 | 0.00 | 0.00 | 39 | 1008.8 |
| 20260902034000 | 82 | 68 | 2.6 | 3.5 | 0.00 | 0.00 | 0.00 | 39 | 1008.7 |
| 20260902033500 | 83 | 319 | 2.6 | 3.5 | 0.00 | 0.00 | 0.00 | 38 | 1008.6 |
| 20260902033000 | 82 | 1 | 3.5 | 3.5 | 0.00 | 0.00 | 0.00 | 38 | 1008.6 |
| 20260902032500 | 82 | 177 | 2.6 | 2.6 | 0.00 | 0.00 | 0.00 | 40 | 1008.6 |
| 20260902032000 | 82 | 116 | 1.7 | 1.7 | 0.00 | 0.00 | 0.00 | 40 | 1008.6 |
| 20260902031500 | 82 | 196 | 0.0 | 0.9 | 0.00 | 0.00 | 0.00 | 39 | 1008.5 |
| 20260902031000 | 82 | 251 | 1.7 | 1.7 | 0.00 | 0.00 | 0.00 | 39 | 1008.5 |
| 20260902030500 | 82 | 223 | 0.9 | 1.7 | 0.00 | 0.00 | 0.00 | 39 | 1008.3 |
| 20260902030000 | 82 | 160 | 1.7 | 1.7 | 0.00 | 0.00 | 0.00 | 40 | 1008.4 |
| 20260902025500 | 82 | 239 | 2.6 | 2.6 | 0.00 | 0.00 | 0.00 | 39 | 1008.3 |
| 20260902025000 | 83 | 20 | 0.9 | 1.7 | 0.00 | 0.00 | 0.00 | 39 | 1008.3 |
| 20260902024500 | 83 | 224 | 0.0 | 0.0 | 0.00 | 0.00 | 0.00 | 38 | 1008.4 |
| 20260902024000 | 83 | 165 | 0.0 | 1.7 | 0.00 | 0.00 | 0.00 | 38 | 1008.3 |
| 20260902023500 | 83 | 164 | 1.7 | 1.7 | 0.00 | 0.00 | 0.00 | 38 | 1008.3 |
| 20260902023000 | 83 | 324 | 0.9 | 0.9 | 0.00 | 0.00 | 0.00 | 38 | 1008.3 |
| 20260902022500 | 82 | 354 | 2.6 | 3.5 | 0.00 | 0.00 | 0.00 | 39 | 1008.4 |
| 20260902022000 | 82 | 9 | 1.7 | 2.6 | 0.00 | 0.00 | 0.00 | 44 | 1008.3 |
| 20260902021500 | 82 | 122 | 1.7 | 2.6 | 0.00 | 0.00 | 0.00 | 43 | 1008.5 |
| 20260902021000 | 83 | 72 | 0.0 | 0.9 | 0.00 | 0.00 | 0.00 | 43 | 1008.3 |
| 20260902020500 | 83 | 347 | 3.5 | 3.5 | 0.00 | 0.00 | 0.00 | 43 | 1008.4 |
| 20260902020000 | 82 | 356 | 3.5 | 4.3 | 0.00 | 0.00 | 0.00 | 47 | 1008.3 |
| 20260902015500 | 82 | 347 | 2.6 | 2.6 | 0.00 | 0.00 | 0.00 | 53 | 1008.3 |
| 20260902015000 | 81 | 303 | 2.6 | 2.6 | 0.00 | 0.00 | 0.00 | 54 | 1008.3 |
| 20260902014500 | 81 | 27 | 1.7 | 1.7 | 0.00 | 0.00 | 0.00 | 57 | 1008.4 |
| 20260902014000 | 81 | 298 | 0.9 | 1.7 | 0.00 | 0.00 | 0.00 | 57 | 1008.4 |
| 20260902013500 | 81 | 37 | 0.0 | 0.0 | 0.00 | 0.00 | 0.00 | 56 | 1008.5 |
| 20260902013000 | 81 | 359 | 0.9 | 1.7 | 0.00 | 0.00 | 0.00 | 55 | 1008.5 |
| 20260902012500 | 82 | 87 | 0.0 | 0.9 | 0.00 | 0.00 | 0.00 | 53 | 1008.4 |
| 20260902012000 | 81 | 296 | 0.0 | 0.0 | 0.00 | 0.00 | 0.00 | 51 | 1008.3 |
| 20260902011500 | 81 | 122 | 2.6 | 2.6 | 0.00 | 0.00 | 0.00 | 53 | 1008.5 |
| 20260902011000 | 82 | 134 | 0.9 | 0.9 | 0.00 | 0.00 | 0.00 | 60 | 1008.3 |
| 20260902010500 | 82 | 302 | 0.9 | 0.9 | 0.00 | 0.00 | 0.00 | 62 | 1008.4 |
| 20260902010000 | 81 | 264 | 0.0 | 0.9 | 0.00 | 0.00 | 0.00 | 62 | 1008.3 |
| 20260902005500 | 81 | 283 | 0.0 | 0.0 | 0.00 | 0.00 | 0.00 | 62 | 1008.4 |
| 20260902005000 | 81 | 135 | 0.0 | 0.0 | 0.00 | 0.00 | 0.00 | 62 | 1008.5 |
| 20260902004500 | 81 | 203 | 0.9 | 1.7 | 0.00 | 0.00 | 0.00 | 61 | 1008.4 |
| 20260902004000 | 82 | 269 | 0.0 | 0.9 | 0.00 | 0.00 | 0.00 | 61 | 1008.4 |
| 20260902003500 | 81 | 147 | 0.0 | 0.0 | 0.00 | 0.00 | 0.00 | 61 | 1008.3 |
| 20260902003000 | 82 | 343 | 0.0 | 0.0 | 0.00 | 0.00 | 0.00 | 62 | 1008.3 |
| 20260902002500 | 81 | 172 | 1.7 | 1.7 | 0.00 | 0.00 | 0.00 | 62 | 1008.3 |
| 20260902002000 | 81 | 180 | 0.0 | 0.9 | 0.00 | 0.00 | 0.00 | 62 | 1008.3 |
| 20260902001500 | 81 | 120 | 2.6 | 2.6 | 0.00 | 0.00 | 0.00 | 64 | 1008.4 |
| 20260902001000 | 81 | 197 | 0.0 | 1.7 | 0.00 | 0.00 | 0.00 | 64 | 1008.4 |
| 20260902000500 | 81 | 77 | 1.7 | 1.7 | 0.00 | 0.00 | 0.00 | 64 | 1008.3 |
| 20260902000000 | 82 | 232 | 0.9 | 1.7 | 0.00 | 0.00 | 0.00 | 63 | 1008.3 |
| 20260901235500 | 82 | 230 | 2.6 | 3.5 | 0.00 | 0.00 | 0.00 | 63 | 1008.3 |
| 20260901235000 | 82 | 167 | 0.9 | 1.7 | 0.00 | 0.00 | 0.00 | 62 | 1008.3 |
| 20260901234500 | 82 | 190 | 0.0 | 1.7 | 0.00 | 0.00 | 0.00 | 60 | 1008.3 |
| 20260901234000 | 82 | 181 | 2.6 | 2.6 | 0.00 | 0.00 | 0.00 | 61 | 1008.3 |
| 20260901233500 | 82 | 178 | 0.0 | 1.7 | 0.00 | 0.00 | 0.00 | 61 | 1008.3 |
| 20260901233000 | 82 | 221 | 1.7 | 1.7 | 0.00 | 0.00 | 0.00 | 59 | 1008.3 |
| 20260901232500 | 82 | 63 | 0.0 | 0.0 | 0.00 | 0.00 | 0.00 | 60 | 1008.3 |
| 20260901232000 | 83 | 262 | 1.7 | 2.6 | 0.00 | 0.00 | 0.00 | 57 | 1008.3 |
| 20260901231500 | 84 | 201 | 0.0 | 0.9 | 0.00 | 0.00 | 0.00 | 52 | 1008.4 |
| 20260901231000 | 82 | 318 | 4.3 | 4.3 | 0.00 | 0.00 | 0.00 | 51 | 1008.3 |
| 20260901230500 | 82 | 280 | 1.7 | 1.7 | 0.00 | 0.00 | 0.00 | 58 | 1008.4 |
| 20260901230000 | 82 | 320 | 0.0 | 0.9 | 0.00 | 0.00 | 0.00 | 58 | 1008.5 |
| 20260901225500 | 83 | 275 | 1.7 | 1.7 | 0.00 | 0.00 | 0.00 | 58 | 1008.4 |
| 20260901225000 | 82 | 109 | 0.9 | 0.9 | 0.00 | 0.00 | 0.00 | 59 | 1008.4 |
| 20260901224500 | 82 | 355 | 0.9 | 1.7 | 0.00 | 0.00 | 0.00 | 59 | 1008.4 |
| 20260901224000 | 82 | 350 | 1.7 | 1.7 | 0.00 | 0.00 | 0.00 | 58 | 1008.3 |
| 20260901223500 | 82 | 72 | 2.6 | 2.6 | 0.00 | 0.00 | 0.00 | 60 | 1008.5 |
| 20260901223000 | 82 | 57 | 1.7 | 1.7 | 0.00 | 0.00 | 0.00 | 62 | 1008.4 |
| 20260901222500 | 82 | 61 | 1.7 | 1.7 | 0.00 | 0.00 | 0.00 | 61 | 1008.4 |
| 20260901222000 | 82 | 70 | 1.7 | 3.5 | 0.00 | 0.00 | 0.00 | 61 | 1008.5 |
| 20260901221500 | 82 | 58 | 2.6 | 4.3 | 0.00 | 0.00 | 0.00 | 62 | 1008.5 |
| 20260901221000 | 82 | 48 | 3.5 | 4.3 | 0.00 | 0.00 | 0.00 | 61 | 1008.4 |
| 20260901220500 | 82 | 121 | 0.9 | 1.7 | 0.00 | 0.00 | 0.00 | 60 | 1008.6 |
| 20260901220000 | 82 | 72 | 1.7 | 1.7 | 0.00 | 0.00 | 0.00 | 59 | 1008.6 |
| 20260901215500 | 82 | 63 | 1.7 | 1.7 | 0.00 | 0.00 | 0.00 | 59 | 1008.6 |
| 20260901215000 | 83 | 152 | 1.7 | 2.6 | 0.00 | 0.00 | 0.00 | 63 | 1008.7 |
| 20260901214500 | 83 | 145 | 0.0 | 0.0 | 0.00 | 0.00 | 0.00 | 59 | 1008.7 |
| 20260901214000 | 83 | 0 | 0.0 | 0.0 | 0.00 | 0.00 | 0.00 | 56 | 1008.5 |
| 20260901213500 | 83 | 128 | 3.5 | 3.5 | 0.00 | 0.00 | 0.00 | 53 | 1008.7 |
| 20260901213000 | 84 | 149 | 2.6 | 2.6 | 0.00 | 0.00 | 0.00 | 50 | 1008.7 |
| 20260901212500 | 84 | 137 | 0.9 | 0.9 | 0.00 | 0.00 | 0.00 | 51 | 1008.6 |
| 20260901212000 | 83 | 281 | 0.9 | 0.9 | 0.00 | 0.00 | 0.00 | 52 | 1008.5 |
| 20260901211500 | 83 | 44 | 0.0 | 0.0 | 0.00 | 0.00 | 0.00 | 49 | 1008.4 |
| 20260901211000 | 84 | 62 | 0.0 | 0.0 | 0.00 | 0.00 | 0.00 | 49 | 1008.5 |
| 20260901210500 | 84 | 315 | 0.0 | 0.0 | 0.00 | 0.00 | 0.00 | 51 | 1008.4 |
| 20260901210000 | 84 | 343 | 0.0 | 0.0 | 0.00 | 0.00 | 0.00 | 51 | 1008.6 |
| 20260901205500 | 84 | 327 | 0.0 | 0.0 | 0.00 | 0.00 | 0.00 | 51 | 1008.5 |
| 20260901205000 | 84 | 200 | 0.9 | 0.9 | 0.00 | 0.00 | 0.00 | 50 | 1008.7 |
| 20260901204500 | 85 | 339 | 0.0 | 0.0 | 0.00 | 0.00 | 0.00 | 49 | 1008.5 |
| 20260901204000 | 85 | 200 | 0.9 | 1.7 | 0.00 | 0.00 | 0.00 | 48 | 1008.5 |
| 20260901203500 | 84 | 191 | 1.7 | 1.7 | 0.00 | 0.00 | 0.00 | 49 | 1008.6 |
| 20260901203000 | 84 | 230 | 0.0 | 0.0 | 0.00 | 0.00 | 0.00 | 48 | 1008.5 |
| 20260901202500 | 85 | 63 | 0.9 | 0.9 | 0.00 | 0.00 | 0.00 | 49 | 1008.5 |
| 20260901202000 | 85 | 195 | 0.0 | 0.0 | 0.00 | 0.00 | 0.00 | 49 | 1008.5 |
| 20260901201500 | 85 | 25 | 0.0 | 0.0 | 0.00 | 0.00 | 0.00 | 48 | 1008.6 |
| 20260901201000 | 85 | 105 | 0.0 | 0.0 | 0.00 | 0.00 | 0.00 | 47 | 1008.5 |
| 20260901200500 | 85 | 315 | 0.0 | 0.9 | 0.00 | 0.00 | 0.00 | 46 | 1008.5 |
| 20260901200000 | 85 | 292 | 0.0 | 0.9 | 0.00 | 0.00 | 0.00 | 44 | 1008.5 |
| 20260901195500 | 86 | 300 | 0.0 | 0.9 | 0.00 | 0.00 | 0.00 | 43 | 1008.5 |
| 20260901195000 | 86 | 307 | 0.0 | 0.0 | 0.00 | 0.00 | 0.00 | 43 | 1008.6 |
| 20260901194500 | 86 | 224 | 0.0 | 0.0 | 0.00 | 0.00 | 0.00 | 42 | 1008.6 |
| 20260901194000 | 86 | 242 | 1.7 | 1.7 | 0.00 | 0.00 | 0.00 | 41 | 1008.5 |
| 20260901193500 | 86 | 29 | 0.9 | 0.9 | 0.00 | 0.00 | 0.00 | 41 | 1008.5 |
| 20260901193000 | 86 | 190 | 0.0 | 0.0 | 0.00 | 0.00 | 0.00 | 42 | 1008.5 |
| 20260901192500 | 86 | 104 | 0.0 | 0.0 | 0.00 | 0.00 | 0.00 | 43 | 1008.4 |
| 20260901192000 | 86 | 64 | 0.0 | 1.7 | 0.00 | 0.00 | 0.00 | 43 | 1008.4 |
| 20260901191500 | 86 | 145 | 1.7 | 2.6 | 0.00 | 0.00 | 0.00 | 42 | 1008.5 |
| 20260901191000 | 87 | 151 | 0.0 | 0.9 | 0.00 | 0.00 | 0.00 | 41 | 1008.5 |
| 20260901190500 | 87 | 44 | 0.0 | 0.9 | 0.00 | 0.00 | 0.00 | 38 | 1008.5 |
| 20260901190000 | 87 | 320 | 3.5 | 3.5 | 0.00 | 0.00 | 0.00 | 38 | 1008.5 |
| 20260901185500 | 87 | 338 | 2.6 | 2.6 | 0.00 | 0.00 | 0.00 | 38 | 1008.3 |
| 20260901185000 | 87 | 341 | 2.6 | 3.5 | 0.00 | 0.00 | 0.00 | 38 | 1008.3 |
| 20260901184500 | 87 | 333 | 3.5 | 4.3 | 0.00 | 0.00 | 0.00 | 39 | 1008.4 |
| 20260901184000 | 87 | 317 | 5.2 | 5.2 | 0.00 | 0.00 | 0.00 | 39 | 1008.2 |
| 20260901183500 | 87 | 326 | 2.6 | 3.5 | 0.00 | 0.00 | 0.00 | 39 | 1008.2 |
| 20260901183000 | 87 | 303 | 3.5 | 5.2 | 0.00 | 0.00 | 0.00 | 39 | 1008.2 |
| 20260901182500 | 87 | 317 | 3.5 | 3.5 | 0.00 | 0.00 | 0.00 | 39 | 1008.3 |
| 20260901182000 | 87 | 353 | 2.6 | 3.5 | 0.00 | 0.00 | 0.00 | 40 | 1008.2 |
| 20260901181500 | 87 | 303 | 2.6 | 3.5 | 0.00 | 0.00 | 0.00 | 42 | 1008.1 |
| 20260901181000 | 87 | 303 | 3.5 | 4.3 | 0.00 | 0.00 | 0.00 | 41 | 1008.0 |
| 20260901180500 | 87 | 300 | 4.3 | 4.3 | 0.00 | 0.00 | 0.00 | 38 | 1008.1 |
| 20260901180000 | 87 | 351 | 3.5 | 3.5 | 0.00 | 0.00 | 0.00 | 37 | 1008.0 |
| 20260901175500 | 87 | 342 | 5.2 | 6.1 | 0.00 | 0.00 | 0.00 | 37 | 1007.8 |
| 20260901175000 | 87 | 5 | 4.3 | 6.1 | 0.00 | 0.00 | 0.00 | 37 | 1007.9 |
| 20260901174500 | 87 | 15 | 5.2 | 5.2 | 0.00 | 0.00 | 0.00 | 37 | 1007.8 |
| 20260901174000 | 87 | 354 | 5.2 | 5.2 | 0.00 | 0.00 | 0.00 | 37 | 1007.8 |
| 20260901173500 | 88 | 24 | 3.5 | 4.3 | 0.00 | 0.00 | 0.00 | 36 | 1007.6 |
| 20260901173000 | 88 | 2 | 4.3 | 4.3 | 0.00 | 0.00 | 0.00 | 36 | 1007.6 |
| 20260901172500 | 88 | 14 | 6.1 | 7.0 | 0.00 | 0.00 | 0.00 | 36 | 1007.6 |
| 20260901172000 | 88 | 357 | 3.5 | 3.5 | 0.00 | 0.00 | 0.00 | 36 | 1007.6 |
| 20260901171500 | 88 | 357 | 4.3 | 5.2 | 0.00 | 0.00 | 0.00 | 36 | 1007.6 |
| 20260901171000 | 88 | 43 | 5.2 | 7.0 | 0.00 | 0.00 | 0.00 | 36 | 1007.6 |
| 20260901170500 | 88 | 14 | 6.1 | 7.8 | 0.00 | 0.00 | 0.00 | 36 | 1007.6 |
| 20260901170000 | 88 | 354 | 5.2 | 7.0 | 0.00 | 0.00 | 0.00 | 36 | 1007.5 |
| 20260901165500 | 88 | 54 | 7.0 | 9.6 | 0.00 | 0.00 | 0.00 | 36 | 1007.6 |
| 20260901165000 | 88 | 47 | 8.7 | 13.0 | 0.00 | 0.00 | 0.00 | 35 | 1007.6 |
| 20260901162500 | 89 | 36 | 5.2 | 9.6 | 0.00 | 0.00 | 0.00 | 35 | 1007.2 |
| 20260901162000 | 89 | 36 | 5.2 | 9.6 | 0.00 | 0.00 | 0.00 | 35 | 1007.2 |
| 20260901161500 | 89 | 36 | 5.2 | 9.6 | 0.00 | 0.00 | 0.00 | 35 | 1007.2 |
| 20260901161000 | 89 | 30 | 7.0 | 9.6 | 0.00 | 0.00 | 0.00 | 35 | 1007.3 |
| 20260901160500 | 89 | 21 | 8.7 | 12.2 | 0.00 | 0.00 | 0.00 | 35 | 1007.3 |
| 20260901160000 | 89 | 44 | 7.8 | 9.6 | 0.00 | 0.00 | 0.00 | 34 | 1007.3 |
| 20260901155500 | 89 | 42 | 7.8 | 8.7 | 0.00 | 0.00 | 0.00 | 34 | 1007.3 |
| 20260901155000 | 89 | 40 | 9.6 | 9.6 | 0.00 | 0.00 | 0.00 | 34 | 1007.4 |
| 20260901154500 | 89 | 30 | 11.3 | 11.3 | 0.00 | 0.00 | 0.00 | 34 | 1007.4 |
| 20260901154000 | 90 | 58 | 6.1 | 8.7 | 0.00 | 0.00 | 0.00 | 33 | 1007.3 |
| 20260901153500 | 90 | 58 | 6.1 | 8.7 | 0.00 | 0.00 | 0.00 | 33 | 1007.3 |
| 20260901153000 | 91 | 53 | 4.3 | 4.3 | 0.00 | 0.00 | 0.00 | 32 | 1007.3 |
| 20260901152500 | 90 | 17 | 3.5 | 5.2 | 0.00 | 0.00 | 0.00 | 32 | 1007.3 |
| 20260901152000 | 91 | 50 | 2.6 | 3.5 | 0.00 | 0.00 | 0.00 | 32 | 1007.3 |
| 20260901151500 | 91 | 73 | 6.1 | 7.0 | 0.00 | 0.00 | 0.00 | 32 | 1007.4 |
| 20260901151000 | 91 | 73 | 7.8 | 7.8 | 0.00 | 0.00 | 0.00 | 32 | 1007.3 |
| 20260901150500 | 91 | 50 | 3.5 | 4.3 | 0.00 | 0.00 | 0.00 | 32 | 1007.3 |
| 20260901150000 | 91 | 78 | 7.8 | 11.3 | 0.00 | 0.00 | 0.00 | 31 | 1007.4 |
| 20260901145500 | 90 | 67 | 8.7 | 9.6 | 0.00 | 0.00 | 0.00 | 32 | 1007.3 |
| 20260901145001 | 91 | 73 | 4.3 | 6.1 | 0.00 | 0.00 | 0.00 | 31 | 1007.4 |
| 20260901144500 | 91 | 43 | 10.4 | 11.3 | 0.00 | 0.00 | 0.00 | 31 | 1007.5 |
| 20260901144000 | 91 | 63 | 6.1 | 9.6 | 0.00 | 0.00 | 0.00 | 31 | 1007.4 |
| 20260901143500 | 91 | 334 | 1.7 | 1.7 | 0.00 | 0.00 | 0.00 | 32 | 1007.4 |
| 20260901143000 | 90 | 40 | 7.0 | 11.3 | 0.00 | 0.00 | 0.00 | 32 | 1007.5 |
| 20260901142500 | 91 | 45 | 6.1 | 9.6 | 0.00 | 0.00 | 0.00 | 31 | 1007.5 |
| 20260901142000 | 91 | 27 | 5.2 | 7.8 | 0.00 | 0.00 | 0.00 | 32 | 1007.6 |
| 20260901141500 | 91 | 342 | 5.2 | 7.0 | 0.00 | 0.00 | 0.00 | 36 | 1007.6 |
| 20260901141000 | 90 | 299 | 4.3 | 5.2 | 0.00 | 0.00 | 0.00 | 38 | 1007.6 |
| 20260901140500 | 90 | 281 | 5.2 | 5.2 | 0.00 | 0.00 | 0.00 | 38 | 1007.7 |
| 20260901140000 | 90 | 262 | 2.6 | 3.5 | 0.00 | 0.00 | 0.00 | 39 | 1007.7 |
| 20260901135500 | 90 | 306 | 3.5 | 5.2 | 0.00 | 0.00 | 0.00 | 39 | 1007.7 |
| 20260901135000 | 90 | 256 | 5.2 | 5.2 | 0.00 | 0.00 | 0.00 | 40 | 1007.8 |
| 20260901134500 | 90 | 262 | 2.6 | 3.5 | 0.00 | 0.00 | 0.00 | 41 | 1007.8 |
| 20260901134000 | 90 | 244 | 3.5 | 7.0 | 0.00 | 0.00 | 0.00 | 44 | 1007.8 |
| 20260901133500 | 89 | 255 | 5.2 | 7.8 | 0.00 | 0.00 | 0.00 | 45 | 1007.7 |
| 20260901133000 | 89 | 231 | 1.7 | 3.5 | 0.00 | 0.00 | 0.00 | 47 | 1007.8 |
| 20260901132500 | 89 | 201 | 7.8 | 8.7 | 0.00 | 0.00 | 0.00 | 46 | 1007.7 |
| 20260901132000 | 89 | 242 | 4.3 | 6.1 | 0.00 | 0.00 | 0.00 | 47 | 1007.7 |
| 20260901131500 | 88 | 211 | 4.3 | 5.2 | 0.00 | 0.00 | 0.00 | 50 | 1007.6 |
| 20260901131000 | 88 | 244 | 2.6 | 7.8 | 0.00 | 0.00 | 0.00 | 48 | 1007.5 |
| 20260901130500 | 89 | 228 | 5.2 | 7.0 | 0.00 | 0.00 | 0.00 | 47 | 1007.8 |
| 20260901130000 | 89 | 271 | 5.2 | 6.1 | 0.00 | 0.00 | 0.00 | 43 | 1007.7 |
| 20260901125500 | 89 | 237 | 3.5 | 5.2 | 0.00 | 0.00 | 0.00 | 38 | 1007.7 |
| 20260901125000 | 89 | 213 | 8.7 | 8.7 | 0.00 | 0.00 | 0.00 | 39 | 1007.7 |
| 20260901124500 | 90 | 215 | 8.7 | 8.7 | 0.00 | 0.00 | 0.00 | 43 | 1007.7 |
| 20260901124000 | 89 | 275 | 6.1 | 7.8 | 0.00 | 0.00 | 0.00 | 42 | 1007.8 |
| 20260901123500 | 87 | 195 | 3.5 | 3.5 | 0.00 | 0.00 | 0.00 | 49 | 1007.9 |
| 20260901123000 | 88 | 221 | 3.5 | 6.1 | 0.00 | 0.00 | 0.00 | 48 | 1008.1 |
| 20260901122500 | 87 | 242 | 3.5 | 5.2 | 0.00 | 0.00 | 0.00 | 46 | 1008.0 |
| 20260901122000 | 87 | 236 | 1.7 | 3.5 | 0.00 | 0.00 | 0.00 | 47 | 1008.3 |
| 20260901121500 | 89 | 211 | 6.1 | 7.0 | 0.00 | 0.00 | 0.00 | 43 | 1008.2 |
| 20260901121000 | 88 | 276 | 5.2 | 5.2 | 0.00 | 0.00 | 0.00 | 44 | 1008.3 |
| 20260901120500 | 88 | 248 | 4.3 | 5.2 | 0.00 | 0.00 | 0.00 | 45 | 1008.3 |
| 20260901120000 | 88 | 254 | 6.1 | 7.0 | 0.00 | 0.00 | 0.00 | 43 | 1008.2 |
| 20260901115500 | 89 | 247 | 7.0 | 7.0 | 0.00 | 0.00 | 0.00 | 40 | 1008.2 |
| 20260901115000 | 88 | 225 | 7.0 | 7.8 | 0.00 | 0.00 | 0.00 | 40 | 1008.2 |
| 20260901114500 | 88 | 232 | 5.2 | 8.7 | 0.00 | 0.00 | 0.00 | 37 | 1008.2 |
| 20260901114000 | 88 | 236 | 7.0 | 7.8 | 0.00 | 0.00 | 0.00 | 41 | 1008.4 |
| 20260901113500 | 89 | 212 | 7.0 | 7.8 | 0.00 | 0.00 | 0.00 | 38 | 1008.2 |
| 20260901113000 | 89 | 214 | 9.6 | 9.6 | 0.00 | 0.00 | 0.00 | 38 | 1008.3 |
| 20260901112500 | 89 | 204 | 7.0 | 8.7 | 0.00 | 0.00 | 0.00 | 38 | 1008.1 |
| 20260901112000 | 89 | 225 | 9.6 | 10.4 | 0.00 | 0.00 | 0.00 | 39 | 1008.1 |
| 20260901111500 | 89 | 230 | 7.0 | 8.7 | 0.00 | 0.00 | 0.00 | 39 | 1008.1 |
| 20260901111000 | 88 | 248 | 7.0 | 8.7 | 0.00 | 0.00 | 0.00 | 39 | 1008.1 |
| 20260901110500 | 89 | 221 | 4.3 | 7.0 | 0.00 | 0.00 | 0.00 | 40 | 1008.2 |
| 20260901110000 | 89 | 225 | 4.3 | 7.0 | 0.00 | 0.00 | 0.00 | 39 | 1008.2 |
| 20260901105500 | 88 | 197 | 4.3 | 6.1 | 0.00 | 0.00 | 0.00 | 42 | 1008.3 |
| 20260901105000 | 87 | 259 | 4.3 | 6.1 | 0.00 | 0.00 | 0.00 | 45 | 1008.3 |
| 20260901104500 | 87 | 225 | 4.3 | 7.0 | 0.00 | 0.00 | 0.00 | 43 | 1008.3 |
| 20260901104000 | 87 | 239 | 5.2 | 7.8 | 0.00 | 0.00 | 0.00 | 47 | 1008.3 |
| 20260901103500 | 88 | 199 | 7.8 | 10.4 | 0.00 | 0.00 | 0.00 | 49 | 1008.4 |
| 20260901103000 | 87 | 227 | 4.3 | 6.1 | 0.00 | 0.00 | 0.00 | 47 | 1008.3 |
| 20260901102500 | 88 | 214 | 8.7 | 9.6 | 0.00 | 0.00 | 0.00 | 44 | 1008.4 |
| 20260901102000 | 87 | 260 | 4.3 | 7.8 | 0.00 | 0.00 | 0.00 | 46 | 1008.5 |
| 20260901101500 | 88 | 202 | 7.0 | 9.6 | 0.00 | 0.00 | 0.00 | 46 | 1008.6 |
| 20260901101000 | 88 | 188 | 1.7 | 5.2 | 0.00 | 0.00 | 0.00 | 47 | 1008.5 |
| 20260901100500 | 87 | 319 | 2.6 | 6.1 | 0.00 | 0.00 | 0.00 | 48 | 1008.5 |
| 20260901100000 | 87 | 260 | 2.6 | 2.6 | 0.00 | 0.00 | 0.00 | 49 | 1008.5 |
| 20260901095500 | 88 | 189 | 3.5 | 4.3 | 0.00 | 0.00 | 0.00 | 46 | 1008.5 |
| 20260901095000 | 88 | 226 | 1.7 | 2.6 | 0.00 | 0.00 | 0.00 | 47 | 1008.5 |
| 20260901094500 | 89 | 165 | 4.3 | 6.1 | 0.00 | 0.00 | 0.00 | 39 | 1008.5 |
| 20260901094000 | 90 | 241 | 3.5 | 6.1 | 0.00 | 0.00 | 0.00 | 45 | 1008.6 |
| 20260901093500 | 90 | 47 | 1.7 | 3.5 | 0.00 | 0.00 | 0.00 | 29 | 1008.6 |
| 20260901093000 | 87 | 16 | 7.0 | 9.6 | 0.00 | 0.00 | 0.00 | 48 | 1008.6 |
| 20260901092500 | 88 | 185 | 2.6 | 5.2 | 0.00 | 0.00 | 0.00 | 44 | 1008.7 |
| 20260901092000 | 90 | 189 | 2.6 | 2.6 | 0.00 | 0.00 | 0.00 | 41 | 1008.7 |
| 20260901091500 | 91 | 226 | 3.5 | 4.3 | 0.00 | 0.00 | 0.00 | 32 | 1008.9 |
| 20260901091000 | 92 | 104 | 3.5 | 5.2 | 0.00 | 0.00 | 0.00 | 28 | 1008.7 |
| 20260901090500 | 91 | 33 | 2.6 | 3.5 | 0.00 | 0.00 | 0.00 | 28 | 1008.8 |
| 20260901090000 | 92 | 84 | 6.1 | 9.6 | 0.00 | 0.00 | 0.00 | 27 | 1008.8 |
| 20260901085500 | 91 | 147 | 2.6 | 5.2 | 0.00 | 0.00 | 0.00 | 28 | 1008.7 |
| 20260901085000 | 90 | 84 | 7.8 | 11.3 | 0.00 | 0.00 | 0.00 | 28 | 1008.5 |
| 20260901084500 | 90 | 87 | 7.0 | 8.7 | 0.00 | 0.00 | 0.00 | 28 | 1008.7 |
| 20260901084000 | 91 | 72 | 13.9 | 17.4 | 0.00 | 0.00 | 0.00 | 28 | 1008.4 |
| 20260901083500 | 90 | 319 | 4.3 | 6.1 | 0.00 | 0.00 | 0.00 | 30 | 1008.7 |
| 20260901083000 | 89 | 48 | 7.0 | 9.6 | 0.00 | 0.00 | 0.00 | 32 | 1008.7 |
| 20260901082500 | 89 | 15 | 7.8 | 10.4 | 0.00 | 0.00 | 0.00 | 33 | 1008.6 |
| 20260901082000 | 86 | 50 | 6.1 | 6.1 | 0.00 | 0.00 | 0.00 | 42 | 1008.6 |
| 20260901081500 | 89 | 349 | 10.4 | 11.3 | 0.00 | 0.00 | 0.00 | 39 | 1008.3 |
| 20260901081000 | 91 | 205 | 6.1 | 7.0 | 0.00 | 0.00 | 0.00 | 34 | 1008.5 |
| 20260901080500 | 89 | 262 | 0.9 | 1.7 | 0.00 | 0.00 | 0.00 | 35 | 1008.6 |
| 20260901080000 | 88 | 12 | 2.6 | 3.5 | 0.00 | 0.00 | 0.00 | 36 | 1008.5 |
| 20260901075500 | 88 | 331 | 3.5 | 6.1 | 0.00 | 0.00 | 0.00 | 37 | 1008.5 |
| 20260901075000 | 87 | 327 | 4.3 | 6.1 | 0.00 | 0.00 | 0.00 | 39 | 1008.6 |
| 20260901074500 | 86 | 313 | 6.1 | 6.1 | 0.00 | 0.00 | 0.00 | 40 | 1008.4 |
| 20260901074000 | 86 | 309 | 4.3 | 5.2 | 0.00 | 0.00 | 0.00 | 40 | 1008.4 |
| 20260901073500 | 85 | 324 | 5.2 | 5.2 | 0.00 | 0.00 | 0.00 | 44 | 1008.4 |
| 20260901073000 | 85 | 288 | 6.1 | 7.0 | 0.00 | 0.00 | 0.00 | 44 | 1008.4 |
| 20260901072500 | 84 | 235 | 2.6 | 3.5 | 0.00 | 0.00 | 0.00 | 43 | 1008.3 |
| 20260901072000 | 85 | 244 | 3.5 | 4.3 | 0.00 | 0.00 | 0.00 | 42 | 1008.3 |
| 20260901071500 | 85 | 277 | 1.7 | 1.7 | 0.00 | 0.00 | 0.00 | 41 | 1008.4 |
| 20260901071000 | 85 | 261 | 2.6 | 2.6 | 0.00 | 0.00 | 0.00 | 41 | 1008.3 |
| 20260901070500 | 85 | 241 | 2.6 | 3.5 | 0.00 | 0.00 | 0.00 | 42 | 1008.4 |
| 20260901070000 | 86 | 189 | 1.7 | 3.5 | 0.00 | 0.00 | 0.00 | 41 | 1008.3 |
| 20260901065500 | 84 | 287 | 0.9 | 1.7 | 0.00 | 0.00 | 0.00 | 43 | 1008.2 |
| 20260901065000 | 85 | 272 | 2.6 | 4.3 | 0.00 | 0.00 | 0.00 | 42 | 1008.3 |
| 20260901064500 | 85 | 354 | 0.0 | 1.7 | 0.00 | 0.00 | 0.00 | 43 | 1008.2 |
| 20260901064000 | 87 | 194 | 0.0 | 1.7 | 0.00 | 0.00 | 0.00 | 40 | 1008.3 |
| 20260901063500 | 87 | 258 | 0.0 | 0.9 | 0.00 | 0.00 | 0.00 | 40 | 1008.2 |
| 20260901063000 | 86 | 267 | 0.9 | 0.9 | 0.00 | 0.00 | 0.00 | 41 | 1008.3 |
| 20260901062500 | 85 | 5 | 0.9 | 1.7 | 0.00 | 0.00 | 0.00 | 39 | 1008.4 |
| 20260901062000 | 85 | 324 | 0.0 | 1.7 | 0.00 | 0.00 | 0.00 | 39 | 1008.4 |
| 20260901061500 | 86 | 281 | 1.7 | 1.7 | 0.00 | 0.00 | 0.00 | 37 | 1008.4 |
| 20260901061000 | 85 | 137 | 0.9 | 0.9 | 0.00 | 0.00 | 0.00 | 41 | 1008.4 |